| time (UTC) | temp F | wind direction | speed knots | gust knots | rain 1hr in | rain 24hr in | rain mn in | humidity % | barometer mb |
| 20260508231536 | 57 | 275 | 1.7 | 5.2 | 0.00 | 0.02 | 0.02 | 52 | 1011.5 |
| 20260508230033 | 57 | 284 | 0.9 | 4.3 | 0.00 | 0.02 | 0.02 | 53 | 1011.3 |
| 20260508224533 | 57 | 246 | 1.7 | 5.2 | 0.00 | 0.02 | 0.02 | 52 | 1011.2 |
| 20260508223041 | 57 | 0 | 0.9 | 5.2 | 0.00 | 0.02 | 0.02 | 52 | 1011.2 |
| 20260508221535 | 58 | 329 | 4.3 | 10.4 | 0.00 | 0.02 | 0.02 | 49 | 1011.0 |
| 20260508220035 | 58 | 306 | 5.2 | 11.3 | 0.00 | 0.02 | 0.02 | 49 | 1011.2 |
| 20260508214538 | 59 | 309 | 5.2 | 10.4 | 0.00 | 0.02 | 0.02 | 48 | 1011.4 |
| 20260508213036 | 58 | 296 | 3.5 | 11.3 | 0.00 | 0.02 | 0.02 | 51 | 1011.4 |
| 20260508211534 | 58 | 290 | 2.6 | 11.3 | 0.00 | 0.02 | 0.02 | 50 | 1011.7 |
| 20260508210030 | 58 | 342 | 2.6 | 9.6 | 0.00 | 0.02 | 0.02 | 51 | 1011.5 |
| 20260508204536 | 58 | 310 | 4.3 | 8.7 | 0.00 | 0.02 | 0.02 | 52 | 1011.4 |
| 20260508203032 | 57 | 250 | 4.3 | 9.6 | 0.00 | 0.02 | 0.02 | 53 | 1011.2 |
| 20260508201532 | 57 | 313 | 2.6 | 12.2 | 0.00 | 0.02 | 0.02 | 54 | 1011.3 |
| 20260508200032 | 58 | 360 | 5.2 | 12.2 | 0.00 | 0.02 | 0.02 | 49 | 1011.2 |
| 20260508194532 | 58 | 352 | 5.2 | 13.9 | 0.00 | 0.02 | 0.02 | 50 | 1011.4 |
| 20260508193036 | 59 | 54 | 7.0 | 13.9 | 0.00 | 0.02 | 0.02 | 48 | 1011.4 |
| 20260508191532 | 57 | 350 | 4.3 | 14.8 | 0.00 | 0.02 | 0.02 | 50 | 1011.5 |
| 20260508190030 | 56 | 323 | 6.1 | 16.5 | 0.00 | 0.02 | 0.02 | 49 | 1011.7 |
| 20260508184535 | 58 | 281 | 1.7 | 8.7 | 0.00 | 0.02 | 0.02 | 44 | 1011.4 |
| 20260508183035 | 59 | 217 | 3.5 | 11.3 | 0.00 | 0.02 | 0.02 | 41 | 1011.2 |
| 20260508181539 | 60 | 296 | 3.5 | 12.2 | 0.00 | 0.02 | 0.02 | 41 | 1010.9 |
| 20260508180039 | 58 | 275 | 3.5 | 15.6 | 0.00 | 0.02 | 0.02 | 42 | 1011.2 |
| 20260508174537 | 58 | 317 | 6.1 | 11.3 | 0.00 | 0.02 | 0.02 | 42 | 1011.1 |
| 20260508173034 | 59 | 225 | 6.1 | 14.8 | 0.00 | 0.02 | 0.02 | 41 | 1011.1 |
| 20260508171541 | 59 | 304 | 5.2 | 11.3 | 0.00 | 0.02 | 0.02 | 40 | 1011.2 |
| 20260508170034 | 58 | 216 | 4.3 | 16.5 | 0.00 | 0.02 | 0.02 | 41 | 1011.3 |
| 20260508164534 | 59 | 219 | 5.2 | 13.9 | 0.00 | 0.02 | 0.02 | 39 | 1011.4 |
| 20260508163038 | 59 | 256 | 5.2 | 13.9 | 0.00 | 0.02 | 0.02 | 40 | 1011.6 |
| 20260508161536 | 58 | 245 | 3.5 | 9.6 | 0.00 | 0.02 | 0.02 | 42 | 1011.8 |
| 20260508160057 | 57 | 255 | 7.0 | 13.0 | 0.00 | 0.02 | 0.02 | 40 | 1011.8 |
| 20260508154534 | 59 | 229 | 3.5 | 10.4 | 0.00 | 0.02 | 0.02 | 40 | 1011.9 |
| 20260508153046 | 59 | 207 | 1.7 | 8.7 | 0.00 | 0.02 | 0.02 | 41 | 1011.9 |
| 20260508151536 | 58 | 0 | 1.7 | 10.4 | 0.00 | 0.02 | 0.02 | 41 | 1011.9 |
| 20260508150036 | 58 | 206 | 2.6 | 9.6 | 0.00 | 0.02 | 0.02 | 41 | 1012.0 |
| 20260508144534 | 57 | 250 | 2.6 | 10.4 | 0.00 | 0.02 | 0.02 | 43 | 1012.0 |
| 20260508143042 | 57 | 294 | 2.6 | 8.7 | 0.00 | 0.02 | 0.02 | 47 | 1012.4 |
| 20260508141548 | 55 | 22 | 4.3 | 10.4 | 0.00 | 0.02 | 0.02 | 49 | 1012.3 |
| 20260508140033 | 54 | 264 | 2.6 | 7.0 | 0.00 | 0.02 | 0.02 | 52 | 1012.3 |
| 20260508134535 | 53 | 316 | 5.2 | 8.7 | 0.00 | 0.02 | 0.02 | 54 | 1012.2 |
| 20260508133034 | 52 | 300 | 3.5 | 7.8 | 0.00 | 0.02 | 0.02 | 59 | 1012.2 |
| 20260508131532 | 52 | 328 | 2.6 | 7.8 | 0.00 | 0.02 | 0.02 | 61 | 1012.2 |
| 20260508130033 | 51 | 299 | 2.6 | 7.0 | 0.00 | 0.02 | 0.02 | 65 | 1012.3 |
| 20260508124533 | 50 | 309 | 1.7 | 7.0 | 0.00 | 0.02 | 0.02 | 68 | 1012.5 |
| 20260508123035 | 49 | 292 | 4.3 | 8.7 | 0.00 | 0.02 | 0.02 | 70 | 1012.7 |
| 20260508121553 | 49 | 250 | 1.7 | 7.0 | 0.00 | 0.02 | 0.02 | 72 | 1012.6 |
| 20260508120036 | 48 | 321 | 1.7 | 8.7 | 0.00 | 0.02 | 0.02 | 74 | 1012.7 |
| 20260508114531 | 48 | 273 | 3.5 | 7.0 | 0.00 | 0.02 | 0.02 | 77 | 1012.4 |
| 20260508113030 | 47 | 263 | 2.6 | 6.1 | 0.00 | 0.02 | 0.02 | 80 | 1012.3 |
| 20260508111529 | 46 | 267 | 1.7 | 4.3 | 0.00 | 0.02 | 0.02 | 83 | 1012.1 |
| 20260508110036 | 45 | 290 | 0.9 | 2.6 | 0.00 | 0.02 | 0.02 | 84 | 1012.0 |
| 20260508104532 | 45 | 0 | 0.0 | 1.7 | 0.00 | 0.02 | 0.02 | 85 | 1011.9 |
| 20260508103033 | 44 | 348 | 0.0 | 3.5 | 0.00 | 0.02 | 0.02 | 84 | 1011.9 |
| 20260508101535 | 44 | 348 | 0.0 | 0.0 | 0.00 | 0.02 | 0.02 | 84 | 1011.8 |
| 20260508100029 | 45 | 0 | 0.0 | 0.0 | 0.00 | 0.02 | 0.02 | 84 | 1011.5 |
| 20260508094529 | 45 | 0 | 0.0 | 0.0 | 0.00 | 0.03 | 0.02 | 84 | 1011.7 |
| 20260508093030 | 45 | 0 | 0.0 | 0.0 | 0.00 | 0.03 | 0.02 | 83 | 1011.5 |
| 20260508091530 | 45 | 0 | 0.0 | 1.7 | 0.00 | 0.03 | 0.02 | 83 | 1011.4 |
| 20260508090030 | 45 | 327 | 0.9 | 1.7 | 0.00 | 0.03 | 0.02 | 82 | 1012.0 |
| 20260508084532 | 45 | 0 | 0.9 | 4.3 | 0.00 | 0.08 | 0.02 | 82 | 1011.2 |
| 20260508083113 | 45 | 305 | 1.7 | 4.3 | 0.00 | 0.08 | 0.02 | 82 | 1011.0 |
| 20260508081532 | 45 | 277 | 0.0 | 3.5 | 0.00 | 0.08 | 0.02 | 81 | 1011.1 |
| 20260508080032 | 45 | 320 | 0.9 | 3.5 | 0.00 | 0.08 | 0.02 | 81 | 1011.0 |
| 20260508074534 | 45 | 344 | 1.7 | 7.0 | 0.00 | 0.12 | 0.02 | 80 | 1011.0 |
| 20260508073033 | 45 | 352 | 0.9 | 5.2 | 0.01 | 0.12 | 0.02 | 79 | 1011.2 |
| 20260508071533 | 45 | 320 | 0.9 | 1.7 | 0.02 | 0.12 | 0.02 | 77 | 1011.3 |
| 20260508070029 | 46 | 320 | 0.9 | 2.6 | 0.02 | 0.12 | 0.02 | 74 | 1011.8 |
| 20260508064544 | 46 | 290 | 3.5 | 10.4 | 0.02 | 0.17 | 0.02 | 71 | 1011.7 |
| 20260508063037 | 48 | 203 | 5.2 | 11.3 | 0.01 | 0.16 | 0.01 | 65 | 1011.7 |
| 20260508061532 | 49 | 300 | 1.7 | 6.1 | 0.00 | 0.15 | 0.00 | 54 | 1011.2 |
| 20260508060034 | 48 | 307 | 1.7 | 3.5 | 0.00 | 0.15 | 0.00 | 61 | 1011.1 |
| 20260508054535 | 48 | 16 | 0.0 | 0.9 | 0.00 | 0.16 | 0.00 | 58 | 1009.3 |
| 20260508053033 | 48 | 0 | 0.0 | 0.0 | 0.00 | 0.16 | 0.00 | 58 | 1009.5 |
| 20260508051539 | 48 | 58 | 1.7 | 3.5 | 0.00 | 0.16 | 0.00 | 58 | 1009.5 |
| 20260508050041 | 48 | 0 | 0.0 | 0.0 | 0.00 | 0.16 | 0.00 | 63 | 1009.4 |
| 20260508044535 | 48 | 0 | 0.0 | 0.0 | 0.00 | 0.16 | 0.00 | 60 | 1009.3 |
| 20260508043036 | 48 | 0 | 0.0 | 1.7 | 0.00 | 0.16 | 0.00 | 61 | 1009.1 |
| 20260508041534 | 48 | 0 | 0.0 | 0.0 | 0.00 | 0.16 | 0.00 | 62 | 1009.1 |
| 20260508040035 | 48 | 0 | 0.0 | 0.0 | 0.00 | 0.16 | 0.00 | 63 | 1009.0 |
| 20260508034534 | 48 | 0 | 0.0 | 0.0 | 0.00 | 0.16 | 0.16 | 62 | 1009.2 |
| 20260508033034 | 48 | 0 | 0.0 | 0.0 | 0.00 | 0.16 | 0.16 | 61 | 1009.3 |
| 20260508031533 | 49 | 0 | 0.0 | 0.0 | 0.00 | 0.16 | 0.16 | 61 | 1009.2 |
| 20260508030046 | 49 | 0 | 0.0 | 0.0 | 0.00 | 0.16 | 0.16 | 60 | 1009.2 |
| 20260508024536 | 49 | 0 | 0.0 | 0.0 | 0.00 | 0.18 | 0.16 | 59 | 1009.2 |
| 20260508023037 | 50 | 0 | 0.0 | 0.0 | 0.00 | 0.18 | 0.16 | 58 | 1009.1 |
| 20260508021535 | 50 | 0 | 0.0 | 1.7 | 0.00 | 0.18 | 0.16 | 59 | 1009.2 |
| 20260508020033 | 50 | 0 | 0.0 | 1.7 | 0.00 | 0.18 | 0.16 | 58 | 1009.0 |
| 20260508014535 | 51 | 0 | 0.0 | 0.0 | 0.00 | 0.26 | 0.16 | 56 | 1009.1 |
| 20260508013033 | 52 | 0 | 0.0 | 0.0 | 0.00 | 0.26 | 0.16 | 50 | 1009.1 |
| 20260508011547 | 53 | 0 | 0.0 | 1.7 | 0.00 | 0.26 | 0.16 | 51 | 1008.9 |
| 20260508010034 | 53 | 0 | 0.0 | 0.0 | 0.00 | 0.26 | 0.16 | 50 | 1008.7 |
| 20260508004545 | 54 | 0 | 0.0 | 0.0 | 0.00 | 0.26 | 0.16 | 48 | 1008.6 |
| 20260508003039 | 55 | 0 | 0.0 | 0.0 | 0.00 | 0.26 | 0.16 | 45 | 1008.2 |
| 20260508001539 | 56 | 0 | 0.0 | 0.0 | 0.00 | 0.26 | 0.16 | 41 | 1008.1 |
| 20260508000033 | 58 | 0 | 0.0 | 2.6 | 0.00 | 0.26 | 0.16 | 38 | 1008.0 |
| 20260507234534 | 59 | 317 | 0.0 | 2.6 | 0.00 | 0.26 | 0.16 | 35 | 1007.8 |
| 20260507233034 | 59 | 313 | 1.7 | 5.2 | 0.00 | 0.26 | 0.16 | 35 | 1007.7 |